This is the latest recevied weather packets stored in our database for station/object DG8SF-13. If no packets are shown the sender has not sent any weather packets the latest 10 day(s).
| Time | Temp. | Humidity | Pressure | Rain* | Wind** | Luminosity | Snow |
|---|---|---|---|---|---|---|---|
| 1787919337 | 19.44° C | 92% | 1015.6 hPa | 2.79 mm | - | - | - |
| 1787919029 | 19.44° C | 91% | 1015.4 hPa | 2.03 mm | - | - | - |
| 1787918715 | 19.44° C | 90% | 1014.7 hPa | 2.03 mm | - | - | - |
| 1787918405 | 20° C | 89% | 1014.7 hPa | 1.27 mm | - | - | - |
| 1787918078 | 20° C | 87% | 1014.3 hPa | 0 mm | - | - | - |
| 1787917768 | 20.56° C | 87% | 1014.2 hPa | 0 mm | - | - | - |
| 1787917455 | 20.56° C | 87% | 1013.9 hPa | 0 mm | - | - | - |
| 1787917144 | 20.56° C | 86% | 1014 hPa | 0 mm | - | - | - |
| 1787916818 | 21.11° C | 85% | 1014 hPa | 0 mm | - | - | - |
| 1787916495 | 21.11° C | 85% | 1013.6 hPa | 0 mm | - | - | - |
| 1787916169 | 21.11° C | 83% | 1013.2 hPa | 0 mm | - | - | - |
| 1787915859 | 21.11° C | 85% | 1013.2 hPa | 0 mm | - | - | - |
| 1787915522 | 21.11° C | 83% | 1013.4 hPa | 0 mm | - | - | - |
| 1787915187 | 21.11° C | 83% | 1013.5 hPa | 0 mm | - | - | - |
| 1787914862 | 21.67° C | 84% | 1013.3 hPa | 0 mm | - | - | - |
| 1787914553 | 22.22° C | 83% | 1013.2 hPa | 0 mm | - | - | - |
| 1787914238 | 22.22° C | 79% | 1012.9 hPa | 0.51 mm | - | - | - |
| 1787913928 | 22.78° C | 77% | 1012.6 hPa | 0.76 mm | - | - | - |
| 1787913615 | 22.78° C | 77% | 1012.5 hPa | 2.29 mm | - | - | - |
| 1787913303 | 22.78° C | 80% | 1012.4 hPa | 3.3 mm | - | - | - |
| 1787912957 | 21.67° C | 78% | 1012.6 hPa | 4.06 mm | - | - | - |
| 1787912630 | 21.67° C | 80% | 1012.9 hPa | 4.32 mm | - | - | - |
| 1787912306 | 21.11° C | 82% | 1013 hPa | 4.83 mm | - | - | - |
| 1787911971 | 21.11° C | 87% | 1012.7 hPa | 4.83 mm | - | - | - |
| 1787911659 | 20° C | 88% | 1012.8 hPa | 4.83 mm | - | - | - |
* Rain latest hour (hover to see other rain measurements)
** Current wind speed in m/s (hover to see current wind gust speed)